Time,TemperatureF,DewpointF,PressureIn,WindDirection,WindDirectionDegrees,WindSpeedMPH,WindSpeedGustMPH,Humidity,HourlyPrecipIn,Conditions,Clouds,dailyrainin,SoftwareType,DateUTC
2013-04-28 00:00:00,70.2,60.3,-100.00,NE,45,4.0,6.0,71,0.00,,,0.00,meteohub,2013-04-28 05:00:00,
2013-04-28 00:02:00,70.2,60.3,-100.00,NNE,23,1.0,6.0,71,0.00,,,0.00,meteohub,2013-04-28 05:02:00,
2013-04-28 00:06:00,70.0,61.0,-100.00,NE,45,0.0,6.0,73,0.00,,,0.00,meteohub,2013-04-28 05:06:00,
2013-04-28 00:08:00,69.8,61.2,-100.00,NE,45,3.0,6.0,74,0.00,,,0.00,meteohub,2013-04-28 05:08:00,
2013-04-28 00:12:00,69.1,61.5,-100.00,East,90,1.0,4.0,77,0.02,,,0.02,meteohub,2013-04-28 05:12:00,
2013-04-28 00:14:00,68.7,61.2,-100.00,East,90,0.0,4.0,77,0.02,,,0.02,meteohub,2013-04-28 05:14:00,
2013-04-28 00:16:00,68.5,61.3,-100.00,ESE,113,0.0,3.0,78,0.02,,,0.02,meteohub,2013-04-28 05:16:00,
2013-04-28 00:20:00,68.2,61.7,-100.00,SE,135,1.0,3.0,80,0.06,,,0.06,meteohub,2013-04-28 05:20:00,
2013-04-28 00:22:00,67.8,61.7,-100.00,South,180,0.0,3.0,81,0.06,,,0.06,meteohub,2013-04-28 05:22:00,
2013-04-28 00:24:00,67.8,61.7,-100.00,South,180,0.0,3.0,81,0.06,,,0.06,meteohub,2013-04-28 05:24:00,
2013-04-28 00:26:00,67.8,62.1,-100.00,SSE,158,2.0,2.0,82,0.06,,,0.06,meteohub,2013-04-28 05:26:00,
2013-04-28 00:28:00,67.8,62.1,-100.00,SSE,158,2.0,2.0,82,0.06,,,0.06,meteohub,2013-04-28 05:28:00,
2013-04-28 00:34:00,67.5,62.4,-100.00,NNE,23,2.0,3.0,84,0.06,,,0.06,meteohub,2013-04-28 05:34:00,
2013-04-28 00:36:00,67.6,62.6,-100.00,NE,45,2.0,3.0,84,0.06,,,0.06,meteohub,2013-04-28 05:36:00,
2013-04-28 00:40:00,67.3,62.6,-100.00,ESE,113,1.0,3.0,85,0.06,,,0.06,meteohub,2013-04-28 05:40:00,
2013-04-28 00:44:00,67.1,62.4,-100.00,NE,45,1.0,3.0,85,0.06,,,0.06,meteohub,2013-04-28 05:44:00,
2013-04-28 00:46:00,67.1,62.4,-100.00,SSE,158,0.0,2.0,85,0.08,,,0.08,meteohub,2013-04-28 05:46:00,
2013-04-28 00:47:00,67.1,62.4,-100.00,SSE,158,0.0,2.0,85,0.08,,,0.08,meteohub,2013-04-28 05:47:00,
2013-04-28 00:52:00,66.9,62.2,-100.00,ENE,68,0.0,2.0,85,0.08,,,0.08,meteohub,2013-04-28 05:52:00,
2013-04-28 00:54:00,66.9,62.2,-100.00,East,90,0.0,2.0,85,0.08,,,0.08,meteohub,2013-04-28 05:54:00,
2013-04-28 00:56:00,66.9,62.6,-100.00,NE,45,0.0,1.0,86,0.08,,,0.08,meteohub,2013-04-28 05:56:00,
2013-04-28 00:58:00,66.9,62.6,-100.00,ENE,68,0.0,1.0,86,0.08,,,0.08,meteohub,2013-04-28 05:58:00,
2013-04-28 01:00:00,66.9,62.6,-100.00,ENE,68,0.0,1.0,86,0.08,,,0.08,meteohub,2013-04-28 06:00:00,
2013-04-28 01:04:00,66.7,62.4,-100.00,ENE,68,0.0,1.0,86,0.08,,,0.08,meteohub,2013-04-28 06:04:00,
2013-04-28 01:06:00,66.7,62.4,-100.00,ESE,113,0.0,0.0,86,0.08,,,0.08,meteohub,2013-04-28 06:06:00,
2013-04-28 01:08:00,66.7,62.4,-100.00,NE,45,0.0,0.0,86,0.08,,,0.08,meteohub,2013-04-28 06:08:00,
2013-04-28 01:10:00,66.7,62.4,-100.00,ENE,68,1.0,0.0,86,0.06,,,0.08,meteohub,2013-04-28 06:10:00,
2013-04-28 01:12:00,66.7,62.4,-100.00,East,90,0.0,0.0,86,0.06,,,0.08,meteohub,2013-04-28 06:12:00,
2013-04-28 01:14:00,66.7,62.4,-100.00,ESE,113,2.0,0.0,86,0.06,,,0.08,meteohub,2013-04-28 06:14:00,
2013-04-28 01:16:00,66.6,62.2,-100.00,SSE,158,0.0,2.0,86,0.04,,,0.08,meteohub,2013-04-28 06:16:00,
2013-04-28 01:17:00,66.6,62.2,-100.00,SSE,158,0.0,2.0,86,0.04,,,0.08,meteohub,2013-04-28 06:17:00,
2013-04-28 01:18:00,66.6,62.6,-100.00,NE,45,1.0,2.0,87,0.04,,,0.08,meteohub,2013-04-28 06:18:00,
2013-04-28 01:22:00,66.4,62.4,-100.00,East,90,0.0,2.0,87,0.02,,,0.08,meteohub,2013-04-28 06:22:00,
2013-04-28 01:24:00,66.4,62.4,-100.00,East,90,0.0,2.0,87,0.02,,,0.08,meteohub,2013-04-28 06:24:00,
2013-04-28 01:28:00,66.4,62.4,-100.00,SSE,158,0.0,2.0,87,0.02,,,0.08,meteohub,2013-04-28 06:28:00,
2013-04-28 01:30:00,66.4,62.4,-100.00,SSE,158,0.0,2.0,87,0.02,,,0.08,meteohub,2013-04-28 06:30:00,
2013-04-28 01:32:00,66.4,62.4,-100.00,ENE,68,0.0,2.0,87,0.02,,,0.08,meteohub,2013-04-28 06:32:00,
2013-04-28 01:38:00,66.4,62.4,-100.00,ESE,113,0.0,1.0,87,0.02,,,0.08,meteohub,2013-04-28 06:38:00,
2013-04-28 01:42:00,66.2,62.2,-100.00,NW,315,0.0,0.0,87,0.02,,,0.08,meteohub,2013-04-28 06:42:00,
2013-04-28 01:44:00,66.2,62.2,-100.00,NNE,23,0.0,0.0,87,0.02,,,0.08,meteohub,2013-04-28 06:44:00,
2013-04-28 01:46:00,66.0,62.1,-100.00,NE,45,0.0,0.0,87,0.00,,,0.08,meteohub,2013-04-28 06:46:00,
2013-04-28 01:47:00,66.0,62.1,-100.00,NE,45,0.0,0.0,87,0.00,,,0.08,meteohub,2013-04-28 06:47:00,
2013-04-28 01:48:00,66.0,62.1,-100.00,NE,45,0.0,0.0,87,0.00,,,0.08,meteohub,2013-04-28 06:48:00,
2013-04-28 01:54:00,66.0,62.1,-100.00,ESE,113,0.0,0.0,87,0.00,,,0.08,meteohub,2013-04-28 06:54:00,
2013-04-28 01:56:00,66.0,62.1,-100.00,SSE,158,0.0,0.0,87,0.00,,,0.08,meteohub,2013-04-28 06:56:00,
2013-04-28 02:02:00,66.0,62.1,-100.00,East,90,0.0,0.0,87,0.00,,,0.08,meteohub,2013-04-28 07:02:00,
2013-04-28 02:07:00,66.2,62.2,-100.00,ENE,68,1.0,1.0,87,0.00,,,0.08,meteohub,2013-04-28 07:07:00,
2013-04-28 02:09:00,66.0,62.1,-100.00,East,90,0.0,1.0,87,0.00,,,0.08,meteohub,2013-04-28 07:09:00,
2013-04-28 02:13:00,66.0,62.1,-100.00,ESE,113,0.0,1.0,87,0.00,,,0.08,meteohub,2013-04-28 07:13:00,
2013-04-28 02:15:00,66.0,62.1,-100.00,ESE,113,0.0,1.0,87,0.00,,,0.08,meteohub,2013-04-28 07:15:00,
2013-04-28 02:17:00,66.0,62.1,-100.00,SE,135,0.0,1.0,87,0.00,,,0.08,meteohub,2013-04-28 07:17:00,
2013-04-28 02:21:00,66.0,62.1,-100.00,ESE,113,0.0,1.0,87,0.00,,,0.08,meteohub,2013-04-28 07:21:00,
2013-04-28 02:25:00,66.0,62.1,-100.00,ENE,68,0.0,1.0,87,0.00,,,0.08,meteohub,2013-04-28 07:25:00,
2013-04-28 02:27:00,66.0,62.1,-100.00,ENE,68,0.0,2.0,87,0.00,,,0.08,meteohub,2013-04-28 07:27:00,
2013-04-28 02:29:00,66.0,62.1,-100.00,SE,135,0.0,2.0,87,0.00,,,0.08,meteohub,2013-04-28 07:29:00,
2013-04-28 02:31:00,66.0,62.1,-100.00,SSE,158,0.0,2.0,87,0.00,,,0.08,meteohub,2013-04-28 07:31:00,
2013-04-28 02:33:00,66.0,62.1,-100.00,NE,45,1.0,2.0,87,0.00,,,0.08,meteohub,2013-04-28 07:33:00,
2013-04-28 02:37:00,66.0,62.1,-100.00,SSE,158,1.0,2.0,87,0.00,,,0.08,meteohub,2013-04-28 07:37:00,
2013-04-28 02:41:00,65.8,61.9,-100.00,SSE,158,0.0,2.0,87,0.00,,,0.08,meteohub,2013-04-28 07:41:00,
2013-04-28 02:43:00,65.8,61.9,-100.00,East,90,1.0,2.0,87,0.00,,,0.08,meteohub,2013-04-28 07:43:00,
2013-04-28 02:45:00,65.7,61.7,-100.00,SSE,158,1.0,2.0,87,0.00,,,0.08,meteohub,2013-04-28 07:45:00,
2013-04-28 02:47:00,65.7,61.7,-100.00,SE,135,0.0,2.0,87,0.00,,,0.08,meteohub,2013-04-28 07:47:00,
2013-04-28 02:49:00,65.7,61.7,-100.00,ESE,113,0.0,2.0,87,0.00,,,0.08,meteohub,2013-04-28 07:49:00,
2013-04-28 02:53:00,65.5,61.5,-100.00,SSE,158,0.0,2.0,87,0.00,,,0.08,meteohub,2013-04-28 07:53:00,
2013-04-28 02:55:00,65.5,61.5,-100.00,ESE,113,0.0,2.0,87,0.00,,,0.08,meteohub,2013-04-28 07:55:00,
2013-04-28 02:59:00,65.5,61.5,-100.00,ESE,113,0.0,1.0,87,0.00,,,0.08,meteohub,2013-04-28 07:59:00,
2013-04-28 03:01:00,65.5,61.5,-100.00,ESE,113,0.0,0.0,87,0.00,,,0.08,meteohub,2013-04-28 08:01:00,
2013-04-28 03:05:00,65.7,61.7,-100.00,ESE,113,0.0,0.0,87,0.00,,,0.08,meteohub,2013-04-28 08:05:00,
2013-04-28 03:09:00,65.5,61.5,-100.00,ESE,113,0.0,0.0,87,0.00,,,0.08,meteohub,2013-04-28 08:09:00,
2013-04-28 03:11:00,65.7,61.7,-100.00,ESE,113,0.0,0.0,87,0.00,,,0.08,meteohub,2013-04-28 08:11:00,
2013-04-28 03:15:00,65.7,61.7,-100.00,ESE,113,0.0,0.0,87,0.00,,,0.08,meteohub,2013-04-28 08:15:00,
2013-04-28 03:17:00,65.7,61.7,-100.00,ESE,113,0.0,0.0,87,0.00,,,0.08,meteohub,2013-04-28 08:17:00,
2013-04-28 03:19:00,65.7,61.7,-100.00,ESE,113,0.0,0.0,87,0.00,,,0.08,meteohub,2013-04-28 08:19:00,
2013-04-28 03:21:00,65.7,61.7,-100.00,ESE,113,0.0,0.0,87,0.00,,,0.08,meteohub,2013-04-28 08:21:00,
2013-04-28 03:23:00,65.7,61.7,-100.00,ESE,113,0.0,0.0,87,0.00,,,0.08,meteohub,2013-04-28 08:23:00,
2013-04-28 03:27:00,65.5,61.5,-100.00,ENE,68,0.0,0.0,87,0.00,,,0.08,meteohub,2013-04-28 08:27:00,
2013-04-28 03:29:00,65.5,61.5,-100.00,South,180,0.0,0.0,87,0.00,,,0.08,meteohub,2013-04-28 08:29:00,
2013-04-28 03:33:00,65.5,61.5,-100.00,South,180,0.0,0.0,87,0.00,,,0.08,meteohub,2013-04-28 08:33:00,
2013-04-28 03:35:00,65.5,61.5,-100.00,SSW,203,0.0,0.0,87,0.00,,,0.08,meteohub,2013-04-28 08:35:00,
2013-04-28 03:39:00,65.5,61.5,-100.00,South,180,0.0,0.0,87,0.00,,,0.08,meteohub,2013-04-28 08:39:00,
2013-04-28 03:41:00,65.5,61.5,-100.00,South,180,0.0,0.0,87,0.00,,,0.08,meteohub,2013-04-28 08:41:00,
2013-04-28 03:43:00,65.5,61.5,-100.00,ENE,68,0.0,0.0,87,0.00,,,0.08,meteohub,2013-04-28 08:43:00,
2013-04-28 03:47:00,65.3,61.3,-100.00,ENE,68,0.0,0.0,87,0.00,,,0.08,meteohub,2013-04-28 08:47:00,
2013-04-28 03:49:00,65.3,61.3,-100.00,ESE,113,0.0,0.0,87,0.00,,,0.08,meteohub,2013-04-28 08:49:00,
2013-04-28 03:51:00,65.1,61.2,-100.00,SSW,203,0.0,0.0,87,0.00,,,0.08,meteohub,2013-04-28 08:51:00,
2013-04-28 03:55:00,65.1,61.2,-100.00,SSW,203,0.0,0.0,87,0.00,,,0.08,meteohub,2013-04-28 08:55:00,
2013-04-28 03:57:00,65.1,61.2,-100.00,SSW,203,0.0,0.0,87,0.00,,,0.08,meteohub,2013-04-28 08:57:00,
2013-04-28 03:59:00,65.1,61.2,-100.00,SSW,203,0.0,0.0,87,0.00,,,0.08,meteohub,2013-04-28 08:59:00,
2013-04-28 04:03:00,65.1,61.2,-100.00,SE,135,0.0,0.0,87,0.00,,,0.08,meteohub,2013-04-28 09:03:00,
2013-04-28 04:05:00,65.1,61.2,-100.00,SE,135,0.0,0.0,87,0.00,,,0.08,meteohub,2013-04-28 09:05:00,
2013-04-28 04:07:00,65.3,61.3,-100.00,SE,135,0.0,0.0,87,0.00,,,0.08,meteohub,2013-04-28 09:07:00,
2013-04-28 04:09:00,65.1,61.2,-100.00,SE,135,0.0,0.0,87,0.00,,,0.08,meteohub,2013-04-28 09:09:00,
2013-04-28 04:11:00,65.1,61.2,-100.00,SE,135,0.0,0.0,87,0.00,,,0.08,meteohub,2013-04-28 09:11:00,
2013-04-28 04:13:00,65.1,61.2,-100.00,SE,135,0.0,0.0,87,0.00,,,0.08,meteohub,2013-04-28 09:13:00,
2013-04-28 04:17:00,65.1,61.2,-100.00,SE,135,0.0,0.0,87,0.00,,,0.08,meteohub,2013-04-28 09:17:00,
2013-04-28 04:19:00,65.1,61.2,-100.00,SE,135,0.0,0.0,87,0.00,,,0.08,meteohub,2013-04-28 09:19:00,
2013-04-28 04:23:00,65.1,61.2,-100.00,SE,135,0.0,0.0,87,0.00,,,0.08,meteohub,2013-04-28 09:23:00,
2013-04-28 04:25:00,65.1,61.2,-100.00,SE,135,0.0,0.0,87,0.00,,,0.08,meteohub,2013-04-28 09:25:00,
2013-04-28 04:27:00,65.1,61.2,-100.00,SE,135,0.0,0.0,87,0.00,,,0.08,meteohub,2013-04-28 09:27:00,
2013-04-28 04:29:00,65.1,61.2,-100.00,SE,135,0.0,0.0,87,0.00,,,0.08,meteohub,2013-04-28 09:29:00,
2013-04-28 04:31:00,65.1,61.2,-100.00,SE,135,0.0,0.0,87,0.00,,,0.08,meteohub,2013-04-28 09:31:00,
2013-04-28 04:33:00,65.1,61.2,-100.00,SE,135,0.0,0.0,87,0.00,,,0.08,meteohub,2013-04-28 09:33:00,
2013-04-28 04:35:00,64.9,61.0,-100.00,SE,135,0.0,0.0,87,0.00,,,0.08,meteohub,2013-04-28 09:35:00,
2013-04-28 04:39:00,65.1,61.2,-100.00,SE,135,0.0,0.0,87,0.00,,,0.08,meteohub,2013-04-28 09:39:00,
2013-04-28 04:41:00,64.9,61.0,-100.00,SE,135,0.0,0.0,87,0.00,,,0.08,meteohub,2013-04-28 09:41:00,
2013-04-28 04:45:00,64.9,61.0,-100.00,SE,135,0.0,0.0,87,0.00,,,0.08,meteohub,2013-04-28 09:45:00,
2013-04-28 04:47:00,64.9,61.0,-100.00,SE,135,0.0,0.0,87,0.00,,,0.08,meteohub,2013-04-28 09:47:00,
2013-04-28 04:51:00,65.1,61.2,-100.00,SW,225,0.0,0.0,87,0.00,,,0.08,meteohub,2013-04-28 09:51:00,
2013-04-28 04:57:00,64.9,61.0,-100.00,SW,225,0.0,0.0,87,0.00,,,0.08,meteohub,2013-04-28 09:57:00,
2013-04-28 05:02:00,64.9,61.0,-100.00,NW,315,0.0,0.0,87,0.00,,,0.08,meteohub,2013-04-28 10:02:00,
2013-04-28 05:08:00,64.8,60.8,-100.00,NW,315,0.0,0.0,87,0.00,,,0.08,meteohub,2013-04-28 10:08:00,
2013-04-28 05:10:00,64.8,61.2,-100.00,NW,315,0.0,0.0,88,0.00,,,0.08,meteohub,2013-04-28 10:10:00,
2013-04-28 05:16:00,64.8,61.2,-100.00,NW,315,0.0,0.0,88,0.00,,,0.08,meteohub,2013-04-28 10:16:00,
2013-04-28 05:17:00,64.8,61.2,-100.00,NW,315,0.0,0.0,88,0.00,,,0.08,meteohub,2013-04-28 10:17:00,
2013-04-28 05:20:00,64.6,61.0,-100.00,NW,315,0.0,0.0,88,0.00,,,0.08,meteohub,2013-04-28 10:20:00,
2013-04-28 05:22:00,64.6,61.0,-100.00,NW,315,0.0,0.0,88,0.00,,,0.08,meteohub,2013-04-28 10:22:00,
2013-04-28 05:26:00,64.6,61.0,-100.00,NW,315,0.0,0.0,88,0.00,,,0.08,meteohub,2013-04-28 10:26:00,
2013-04-28 05:28:00,64.6,61.0,-100.00,NW,315,0.0,0.0,88,0.00,,,0.08,meteohub,2013-04-28 10:28:00,
2013-04-28 05:30:00,64.4,60.8,-100.00,NW,315,0.0,0.0,88,0.00,,,0.08,meteohub,2013-04-28 10:30:00,
2013-04-28 05:32:00,64.6,61.0,-100.00,NW,315,0.0,0.0,88,0.00,,,0.08,meteohub,2013-04-28 10:32:00,
2013-04-28 05:36:00,64.4,60.8,-100.00,NW,315,0.0,0.0,88,0.00,,,0.08,meteohub,2013-04-28 10:36:00,
2013-04-28 05:38:00,64.2,60.6,-100.00,NW,315,0.0,0.0,88,0.00,,,0.08,meteohub,2013-04-28 10:38:00,
2013-04-28 05:40:00,64.2,60.6,-100.00,NW,315,0.0,0.0,88,0.00,,,0.08,meteohub,2013-04-28 10:40:00,
2013-04-28 05:42:00,64.2,60.6,-100.00,North,0,0.0,0.0,88,0.00,,,0.08,meteohub,2013-04-28 10:42:00,
2013-04-28 05:46:00,64.2,60.6,-100.00,North,0,0.0,0.0,88,0.00,,,0.08,meteohub,2013-04-28 10:46:00,
2013-04-28 05:48:00,64.2,60.6,-100.00,North,0,0.0,0.0,88,0.00,,,0.08,meteohub,2013-04-28 10:48:00,
2013-04-28 05:52:00,64.2,60.6,-100.00,North,0,0.0,0.0,88,0.00,,,0.08,meteohub,2013-04-28 10:52:00,
2013-04-28 05:54:00,64.2,60.6,-100.00,North,0,0.0,0.0,88,0.00,,,0.08,meteohub,2013-04-28 10:54:00,
2013-04-28 05:56:00,64.2,60.6,-100.00,North,0,0.0,0.0,88,0.00,,,0.08,meteohub,2013-04-28 10:56:00,
2013-04-28 06:02:00,64.0,60.4,-100.00,North,0,0.0,0.0,88,0.00,,,0.08,meteohub,2013-04-28 11:02:00,
2013-04-28 06:04:00,64.0,60.4,-100.00,North,0,0.0,0.0,88,0.00,,,0.08,meteohub,2013-04-28 11:04:00,
2013-04-28 06:06:00,64.0,60.4,-100.00,North,0,0.0,0.0,88,0.00,,,0.08,meteohub,2013-04-28 11:06:00,
2013-04-28 06:08:00,64.0,60.4,-100.00,North,0,0.0,0.0,88,0.00,,,0.08,meteohub,2013-04-28 11:08:00,
2013-04-28 06:10:00,63.9,60.3,-100.00,North,0,0.0,0.0,88,0.00,,,0.08,meteohub,2013-04-28 11:10:00,
2013-04-28 06:14:00,63.7,60.1,-100.00,North,0,0.0,0.0,88,0.00,,,0.08,meteohub,2013-04-28 11:14:00,
2013-04-28 06:16:00,63.7,60.1,-100.00,North,0,0.0,0.0,88,0.00,,,0.08,meteohub,2013-04-28 11:16:00,
2013-04-28 06:17:00,63.7,60.1,-100.00,North,0,0.0,0.0,88,0.00,,,0.08,meteohub,2013-04-28 11:17:00,
2013-04-28 06:18:00,63.7,60.1,-100.00,North,0,0.0,0.0,88,0.00,,,0.08,meteohub,2013-04-28 11:18:00,
2013-04-28 06:20:00,63.7,60.1,-100.00,North,0,0.0,0.0,88,0.00,,,0.08,meteohub,2013-04-28 11:20:00,
2013-04-28 06:22:00,63.7,60.1,-100.00,North,0,0.0,0.0,88,0.00,,,0.08,meteohub,2013-04-28 11:22:00,
2013-04-28 06:24:00,63.7,60.1,-100.00,North,0,0.0,0.0,88,0.00,,,0.08,meteohub,2013-04-28 11:24:00,
2013-04-28 06:26:00,63.7,60.1,-100.00,North,0,0.0,0.0,88,0.00,,,0.08,meteohub,2013-04-28 11:26:00,
2013-04-28 06:30:00,63.5,59.9,-100.00,North,0,0.0,0.0,88,0.00,,,0.08,meteohub,2013-04-28 11:30:00,
2013-04-28 06:32:00,63.3,59.7,-100.00,North,0,0.0,0.0,88,0.00,,,0.08,meteohub,2013-04-28 11:32:00,
2013-04-28 06:36:00,63.3,59.7,-100.00,North,0,0.0,0.0,88,0.00,,,0.08,meteohub,2013-04-28 11:36:00,
2013-04-28 06:38:00,63.1,59.5,-100.00,North,0,0.0,0.0,88,0.00,,,0.08,meteohub,2013-04-28 11:38:00,
2013-04-28 06:42:00,63.1,59.5,-100.00,North,0,0.0,0.0,88,0.00,,,0.08,meteohub,2013-04-28 11:42:00,
2013-04-28 06:44:00,63.1,59.5,-100.00,North,0,0.0,0.0,88,0.00,,,0.08,meteohub,2013-04-28 11:44:00,
2013-04-28 06:46:00,63.1,59.5,-100.00,North,0,0.0,0.0,88,0.00,,,0.08,meteohub,2013-04-28 11:46:00,
2013-04-28 06:48:00,63.1,59.5,-100.00,North,0,0.0,0.0,88,0.00,,,0.08,meteohub,2013-04-28 11:48:00,
2013-04-28 06:50:00,63.0,59.4,-100.00,North,0,0.0,0.0,88,0.00,,,0.08,meteohub,2013-04-28 11:50:00,
2013-04-28 06:52:00,63.0,59.4,-100.00,North,0,0.0,0.0,88,0.00,,,0.08,meteohub,2013-04-28 11:52:00,
2013-04-28 06:58:00,62.8,59.2,-100.00,North,0,0.0,0.0,88,0.00,,,0.08,meteohub,2013-04-28 11:58:00,
2013-04-28 07:00:00,62.8,59.2,-100.00,North,0,0.0,0.0,88,0.00,,,0.08,meteohub,2013-04-28 12:00:00,
2013-04-28 07:02:00,62.8,59.2,-100.00,North,0,0.0,0.0,88,0.00,,,0.08,meteohub,2013-04-28 12:02:00,
2013-04-28 07:06:00,62.6,59.0,-100.00,North,0,0.0,0.0,88,0.00,,,0.08,meteohub,2013-04-28 12:06:00,
2013-04-28 07:08:00,62.6,59.0,-100.00,North,0,0.0,0.0,88,0.00,,,0.08,meteohub,2013-04-28 12:08:00,
2013-04-28 07:14:00,62.4,58.8,-100.00,North,0,0.0,0.0,88,0.00,,,0.08,meteohub,2013-04-28 12:14:00,
2013-04-28 07:16:00,62.4,58.8,-100.00,North,0,0.0,0.0,88,0.00,,,0.08,meteohub,2013-04-28 12:16:00,
2013-04-28 07:18:00,62.4,58.8,-100.00,North,0,0.0,0.0,88,0.00,,,0.08,meteohub,2013-04-28 12:18:00,
2013-04-28 07:20:00,62.4,58.8,-100.00,North,0,0.0,0.0,88,0.00,,,0.08,meteohub,2013-04-28 12:20:00,
2013-04-28 07:26:00,62.4,59.2,-100.00,North,0,0.0,0.0,89,0.00,,,0.08,meteohub,2013-04-28 12:26:00,
2013-04-28 07:28:00,62.4,58.8,-100.00,North,0,0.0,0.0,88,0.00,,,0.08,meteohub,2013-04-28 12:28:00,
2013-04-28 07:30:00,62.4,59.2,-100.00,North,0,0.0,0.0,89,0.00,,,0.08,meteohub,2013-04-28 12:30:00,
2013-04-28 07:32:00,62.4,59.2,-100.00,North,0,0.0,0.0,89,0.00,,,0.08,meteohub,2013-04-28 12:32:00,
2013-04-28 07:34:00,62.4,58.8,-100.00,NNE,23,0.0,0.0,88,0.00,,,0.08,meteohub,2013-04-28 12:34:00,
2013-04-28 07:36:00,62.4,58.8,-100.00,NNE,23,0.0,0.0,88,0.00,,,0.08,meteohub,2013-04-28 12:36:00,
2013-04-28 07:40:00,62.4,58.8,-100.00,NNE,23,0.0,0.0,88,0.00,,,0.08,meteohub,2013-04-28 12:40:00,
2013-04-28 07:44:00,62.4,58.8,-100.00,NNE,23,0.0,0.0,88,0.00,,,0.08,meteohub,2013-04-28 12:44:00,
2013-04-28 07:46:00,62.4,59.2,-100.00,NNE,23,0.0,0.0,89,0.00,,,0.08,meteohub,2013-04-28 12:46:00,
2013-04-28 07:47:00,62.4,59.2,-100.00,NNE,23,0.0,0.0,89,0.00,,,0.08,meteohub,2013-04-28 12:47:00,
2013-04-28 07:52:00,62.6,59.4,-100.00,NNE,23,0.0,0.0,89,0.00,,,0.08,meteohub,2013-04-28 12:52:00,
2013-04-28 07:54:00,62.8,59.5,-100.00,NNE,23,0.0,0.0,89,0.00,,,0.08,meteohub,2013-04-28 12:54:00,
2013-04-28 07:56:00,62.8,59.5,-100.00,NNE,23,0.0,0.0,89,0.00,,,0.08,meteohub,2013-04-28 12:56:00,
2013-04-28 08:00:00,63.1,59.9,-100.00,WNW,293,0.0,0.0,89,0.00,,,0.08,meteohub,2013-04-28 13:00:00,
2013-04-28 08:02:00,63.1,59.9,-100.00,WNW,293,0.0,0.0,89,0.00,,,0.08,meteohub,2013-04-28 13:02:00,
2013-04-28 08:05:00,63.3,60.1,-100.00,SSE,158,0.0,0.0,89,0.00,,,0.08,meteohub,2013-04-28 13:05:00,
2013-04-28 08:07:00,63.3,60.1,-100.00,SSE,158,0.0,0.0,89,0.00,,,0.08,meteohub,2013-04-28 13:07:00,
2013-04-28 08:13:00,63.5,60.3,-100.00,South,180,1.0,0.0,89,0.00,,,0.08,meteohub,2013-04-28 13:13:00,
2013-04-28 08:15:00,63.7,60.4,-100.00,SSW,203,0.0,0.0,89,0.00,,,0.08,meteohub,2013-04-28 13:15:00,
2013-04-28 08:17:00,63.7,60.4,-100.00,SW,225,0.0,1.0,89,0.00,,,0.08,meteohub,2013-04-28 13:17:00,
2013-04-28 08:19:00,64.0,60.8,-100.00,South,180,0.0,1.0,89,0.00,,,0.08,meteohub,2013-04-28 13:19:00,
2013-04-28 08:25:00,64.2,61.2,-100.00,South,180,2.0,2.0,90,0.00,,,0.08,meteohub,2013-04-28 13:25:00,
2013-04-28 08:31:00,64.6,61.3,-100.00,SSE,158,0.0,2.0,89,0.00,,,0.08,meteohub,2013-04-28 13:31:00,
2013-04-28 08:32:00,64.6,61.3,-100.00,SSE,158,0.0,2.0,89,0.00,,,0.08,meteohub,2013-04-28 13:32:00,
2013-04-28 08:37:00,64.8,61.5,-100.00,SE,135,0.0,2.0,89,0.00,,,0.08,meteohub,2013-04-28 13:37:00,
2013-04-28 08:39:00,64.9,61.7,-100.00,WSW,248,0.0,2.0,89,0.00,,,0.08,meteohub,2013-04-28 13:39:00,
2013-04-28 08:43:00,64.9,61.7,-100.00,ESE,113,0.0,2.0,89,0.00,,,0.08,meteohub,2013-04-28 13:43:00,
2013-04-28 08:45:00,65.1,61.5,-100.00,SE,135,0.0,2.0,88,0.00,,,0.08,meteohub,2013-04-28 13:45:00,
2013-04-28 08:49:00,65.1,61.5,-100.00,SSE,158,0.0,0.0,88,0.00,,,0.08,meteohub,2013-04-28 13:49:00,
2013-04-28 08:51:00,65.3,61.3,-100.00,South,180,0.0,0.0,87,0.00,,,0.08,meteohub,2013-04-28 13:51:00,
2013-04-28 08:53:00,65.5,61.5,-100.00,SSE,158,1.0,0.0,87,0.00,,,0.08,meteohub,2013-04-28 13:53:00,
2013-04-28 08:55:00,65.5,61.5,-100.00,SSW,203,2.0,0.0,87,0.00,,,0.08,meteohub,2013-04-28 13:55:00,
2013-04-28 08:57:00,65.5,61.5,-100.00,SE,135,1.0,1.0,87,0.00,,,0.08,meteohub,2013-04-28 13:57:00,
2013-04-28 09:01:00,65.8,61.5,-100.00,ESE,113,0.0,2.0,86,0.00,,,0.08,meteohub,2013-04-28 14:01:00,
2013-04-28 09:05:00,66.0,61.7,-100.00,SSE,158,0.0,2.0,86,0.00,,,0.08,meteohub,2013-04-28 14:05:00,
2013-04-28 09:07:00,66.2,61.5,-100.00,SE,135,0.0,2.0,85,0.00,,,0.08,meteohub,2013-04-28 14:07:00,
2013-04-28 09:11:00,66.6,61.5,-100.00,SSE,158,0.0,2.0,84,0.00,,,0.08,meteohub,2013-04-28 14:11:00,
2013-04-28 09:13:00,66.6,61.5,-100.00,SSE,158,0.0,2.0,84,0.00,,,0.08,meteohub,2013-04-28 14:13:00,
2013-04-28 09:15:00,66.6,61.5,-100.00,NNE,23,0.0,0.0,84,0.00,,,0.08,meteohub,2013-04-28 14:15:00,
2013-04-28 09:17:00,66.7,61.7,-100.00,WNW,293,0.0,0.0,84,0.00,,,0.08,meteohub,2013-04-28 14:17:00,
2013-04-28 09:19:00,66.7,61.7,-100.00,SSW,203,0.0,0.0,84,0.00,,,0.08,meteohub,2013-04-28 14:19:00,
2013-04-28 09:21:00,66.9,61.9,-100.00,South,180,1.0,0.0,84,0.00,,,0.08,meteohub,2013-04-28 14:21:00,
2013-04-28 09:25:00,67.1,61.7,-100.00,SE,135,0.0,1.0,83,0.00,,,0.08,meteohub,2013-04-28 14:25:00,
2013-04-28 09:29:00,67.3,61.2,-100.00,SSE,158,1.0,1.0,81,0.00,,,0.08,meteohub,2013-04-28 14:29:00,
2013-04-28 09:31:00,67.6,61.5,-100.00,SSE,158,2.0,2.0,81,0.00,,,0.08,meteohub,2013-04-28 14:31:00,
2013-04-28 09:32:00,67.6,61.5,-100.00,SSE,158,2.0,2.0,81,0.00,,,0.08,meteohub,2013-04-28 14:32:00,
2013-04-28 09:35:00,67.8,61.7,-100.00,ENE,68,0.0,2.0,81,0.00,,,0.08,meteohub,2013-04-28 14:35:00,
2013-04-28 09:37:00,67.8,61.7,-100.00,SSE,158,1.0,2.0,81,0.00,,,0.08,meteohub,2013-04-28 14:37:00,
2013-04-28 09:39:00,67.8,61.7,-100.00,South,180,1.0,2.0,81,0.00,,,0.08,meteohub,2013-04-28 14:39:00,
2013-04-28 09:43:00,68.2,61.7,-100.00,SSW,203,2.0,2.0,80,0.00,,,0.08,meteohub,2013-04-28 14:43:00,
2013-04-28 09:47:00,68.4,61.9,-100.00,WSW,248,0.0,2.0,80,0.00,,,0.08,meteohub,2013-04-28 14:47:00,
2013-04-28 09:49:00,68.4,61.5,-100.00,South,180,0.0,2.0,79,0.00,,,0.08,meteohub,2013-04-28 14:49:00,
2013-04-28 09:53:00,68.7,61.9,-100.00,East,90,0.0,2.0,79,0.00,,,0.08,meteohub,2013-04-28 14:53:00,
2013-04-28 09:55:00,68.9,62.1,-100.00,SSE,158,1.0,2.0,79,0.00,,,0.08,meteohub,2013-04-28 14:55:00,
2013-04-28 09:59:00,69.3,62.1,-100.00,ESE,113,0.0,2.0,78,0.00,,,0.08,meteohub,2013-04-28 14:59:00,
2013-04-28 10:01:00,69.4,61.9,-100.00,SE,135,1.0,1.0,77,0.00,,,0.08,meteohub,2013-04-28 15:01:00,
2013-04-28 10:02:00,69.4,61.9,-100.00,SE,135,1.0,1.0,77,0.00,,,0.08,meteohub,2013-04-28 15:02:00,
2013-04-28 10:03:00,69.6,62.1,-100.00,South,180,2.0,2.0,77,0.00,,,0.08,meteohub,2013-04-28 15:03:00,
2013-04-28 10:05:00,69.6,62.1,-100.00,SSE,158,2.0,2.0,77,0.00,,,0.08,meteohub,2013-04-28 15:05:00,
2013-04-28 10:09:00,70.2,62.2,-100.00,SW,225,0.0,2.0,76,0.00,,,0.08,meteohub,2013-04-28 15:09:00,
2013-04-28 10:11:00,70.3,62.4,-100.00,SE,135,1.0,2.0,76,0.00,,,0.08,meteohub,2013-04-28 15:11:00,
2013-04-28 10:13:00,70.5,62.2,-100.00,South,180,0.0,2.0,75,0.00,,,0.08,meteohub,2013-04-28 15:13:00,
2013-04-28 10:15:00,70.5,62.2,-100.00,West,270,0.0,2.0,75,0.00,,,0.08,meteohub,2013-04-28 15:15:00,
2013-04-28 10:17:00,70.5,62.2,-100.00,West,270,0.0,2.0,75,0.00,,,0.08,meteohub,2013-04-28 15:17:00,
2013-04-28 10:19:00,70.9,62.6,-100.00,South,180,2.0,2.0,75,0.00,,,0.08,meteohub,2013-04-28 15:19:00,
2013-04-28 10:23:00,71.1,61.9,-100.00,South,180,2.0,2.0,73,0.00,,,0.08,meteohub,2013-04-28 15:23:00,
2013-04-28 10:25:00,71.2,61.7,-100.00,SE,135,0.0,2.0,72,0.00,,,0.08,meteohub,2013-04-28 15:25:00,
2013-04-28 10:29:00,71.4,61.9,-100.00,SW,225,2.0,2.0,72,0.00,,,0.08,meteohub,2013-04-28 15:29:00,
2013-04-28 10:31:00,71.4,61.9,-100.00,SSE,158,0.0,2.0,72,0.00,,,0.08,meteohub,2013-04-28 15:31:00,
2013-04-28 10:37:00,72.0,62.1,-100.00,SSE,158,0.0,2.0,71,0.00,,,0.08,meteohub,2013-04-28 15:37:00,
2013-04-28 10:41:00,72.3,62.1,-100.00,SSW,203,3.0,3.0,70,0.00,,,0.08,meteohub,2013-04-28 15:41:00,
2013-04-28 10:43:00,72.3,61.5,-100.00,SE,135,0.0,2.0,69,0.00,,,0.08,meteohub,2013-04-28 15:43:00,
2013-04-28 10:45:00,72.7,61.9,-100.00,South,180,2.0,3.0,69,0.00,,,0.08,meteohub,2013-04-28 15:45:00,
2013-04-28 10:47:00,72.7,61.9,-100.00,South,180,2.0,3.0,69,0.00,,,0.08,meteohub,2013-04-28 15:47:00,
2013-04-28 10:51:00,73.0,61.9,-100.00,SSW,203,3.0,3.0,68,0.00,,,0.08,meteohub,2013-04-28 15:51:00,
2013-04-28 10:53:00,73.0,61.9,-100.00,NNE,23,4.0,4.0,68,0.00,,,0.08,meteohub,2013-04-28 15:53:00,
2013-04-28 10:55:00,73.2,62.1,-100.00,NNE,23,4.0,4.0,68,0.00,,,0.08,meteohub,2013-04-28 15:55:00,
2013-04-28 10:59:00,73.2,61.5,-100.00,WNW,293,0.0,3.0,67,0.00,,,0.08,meteohub,2013-04-28 15:59:00,
2013-04-28 11:02:00,73.4,61.7,-100.00,East,90,3.0,4.0,67,0.00,,,0.08,meteohub,2013-04-28 16:02:00,
2013-04-28 11:04:00,73.6,61.5,-100.00,SE,135,2.0,4.0,66,0.00,,,0.08,meteohub,2013-04-28 16:04:00,
2013-04-28 11:06:00,73.8,61.7,-100.00,East,90,3.0,4.0,66,0.00,,,0.08,meteohub,2013-04-28 16:06:00,
2013-04-28 11:08:00,73.9,61.3,-100.00,South,180,1.0,4.0,65,0.00,,,0.08,meteohub,2013-04-28 16:08:00,
2013-04-28 11:10:00,73.9,61.9,-100.00,SSE,158,0.0,4.0,66,0.00,,,0.08,meteohub,2013-04-28 16:10:00,
2013-04-28 11:12:00,74.1,61.5,-100.00,ESE,113,0.0,4.0,65,0.00,,,0.08,meteohub,2013-04-28 16:12:00,
2013-04-28 11:16:00,74.3,61.7,-100.00,West,270,2.0,3.0,65,0.00,,,0.08,meteohub,2013-04-28 16:16:00,
2013-04-28 11:17:00,74.3,61.7,-100.00,West,270,2.0,3.0,65,0.00,,,0.08,meteohub,2013-04-28 16:17:00,
2013-04-28 11:18:00,74.5,61.9,-100.00,SSW,203,2.0,3.0,65,0.00,,,0.08,meteohub,2013-04-28 16:18:00,
2013-04-28 11:20:00,74.5,61.9,-100.00,SSW,203,2.0,3.0,65,0.00,,,0.08,meteohub,2013-04-28 16:20:00,
2013-04-28 11:26:00,75.0,62.1,-100.00,East,90,0.0,2.0,64,0.00,,,0.08,meteohub,2013-04-28 16:26:00,
2013-04-28 11:28:00,75.0,62.1,-100.00,East,90,0.0,2.0,64,0.00,,,0.08,meteohub,2013-04-28 16:28:00,
2013-04-28 11:32:00,75.4,61.9,-100.00,WNW,293,0.0,2.0,63,0.00,,,0.08,meteohub,2013-04-28 16:32:00,
2013-04-28 11:36:00,75.6,62.1,-100.00,East,90,2.0,2.0,63,0.00,,,0.08,meteohub,2013-04-28 16:36:00,
2013-04-28 11:38:00,75.7,61.9,-100.00,ENE,68,0.0,2.0,62,0.00,,,0.08,meteohub,2013-04-28 16:38:00,
2013-04-28 11:42:00,75.9,61.9,-100.00,South,180,1.0,2.0,62,0.00,,,0.08,meteohub,2013-04-28 16:42:00,
2013-04-28 11:46:00,76.3,62.8,-100.00,East,90,0.0,4.0,63,0.00,,,0.08,meteohub,2013-04-28 16:46:00,
2013-04-28 11:47:00,76.3,62.8,-100.00,East,90,0.0,4.0,63,0.00,,,0.08,meteohub,2013-04-28 16:47:00,
2013-04-28 11:52:00,76.8,62.4,-100.00,NE,45,1.0,4.0,61,0.00,,,0.08,meteohub,2013-04-28 16:52:00,
2013-04-28 11:56:00,77.0,62.1,-100.00,North,0,1.0,4.0,60,0.00,,,0.08,meteohub,2013-04-28 16:56:00,
2013-04-28 11:58:00,77.2,62.6,-100.00,North,0,1.0,4.0,61,0.00,,,0.08,meteohub,2013-04-28 16:58:00,
2013-04-28 12:02:00,77.2,62.2,-100.00,NNW,338,0.0,4.0,60,0.00,,,0.08,meteohub,2013-04-28 17:02:00,
2013-04-28 12:08:00,77.7,61.7,-100.00,ENE,68,1.0,4.0,58,0.00,,,0.08,meteohub,2013-04-28 17:08:00,
2013-04-28 12:12:00,77.9,61.9,-100.00,NE,45,0.0,4.0,58,0.00,,,0.08,meteohub,2013-04-28 17:12:00,
2013-04-28 12:14:00,78.1,62.1,-100.00,WSW,248,3.0,4.0,58,0.00,,,0.08,meteohub,2013-04-28 17:14:00,
2013-04-28 12:16:00,78.4,61.9,-100.00,SSE,158,2.0,4.0,57,0.00,,,0.08,meteohub,2013-04-28 17:16:00,
2013-04-28 12:20:00,78.6,61.5,-100.00,ESE,113,4.0,4.0,56,0.00,,,0.08,meteohub,2013-04-28 17:20:00,
2013-04-28 12:22:00,78.6,61.5,-100.00,SW,225,8.0,8.0,56,0.00,,,0.08,meteohub,2013-04-28 17:22:00,
2013-04-28 12:24:00,78.6,61.5,-100.00,ENE,68,3.0,4.0,56,0.00,,,0.08,meteohub,2013-04-28 17:24:00,
2013-04-28 12:30:00,79.0,61.9,-100.00,West,270,3.0,8.0,56,0.00,,,0.08,meteohub,2013-04-28 17:30:00,
2013-04-28 12:32:00,79.0,61.9,-100.00,West,270,3.0,8.0,56,0.00,,,0.08,meteohub,2013-04-28 17:32:00,
2013-04-28 12:38:00,79.3,61.2,-100.00,ESE,113,1.0,8.0,54,0.00,,,0.08,meteohub,2013-04-28 17:38:00,
2013-04-28 12:40:00,79.5,61.9,-100.00,NNE,23,2.0,3.0,55,0.00,,,0.08,meteohub,2013-04-28 17:40:00,
2013-04-28 12:46:00,80.2,62.6,-100.00,ENE,68,0.0,3.0,55,0.00,,,0.08,meteohub,2013-04-28 17:46:00,
2013-04-28 12:47:00,80.2,62.6,-100.00,ENE,68,0.0,3.0,55,0.00,,,0.08,meteohub,2013-04-28 17:47:00,
2013-04-28 12:50:00,80.4,61.7,-100.00,ENE,68,0.0,3.0,53,0.00,,,0.08,meteohub,2013-04-28 17:50:00,
2013-04-28 12:52:00,80.4,61.7,-100.00,South,180,3.0,3.0,53,0.00,,,0.08,meteohub,2013-04-28 17:52:00,
2013-04-28 12:58:00,80.8,62.6,-100.00,South,180,1.0,3.0,54,0.00,,,0.08,meteohub,2013-04-28 17:58:00,
2013-04-28 13:00:00,81.0,62.2,-100.00,ESE,113,1.0,3.0,53,0.00,,,0.08,meteohub,2013-04-28 18:00:00,
2013-04-28 13:04:00,81.3,62.6,-100.00,South,180,2.0,3.0,53,0.00,,,0.08,meteohub,2013-04-28 18:04:00,
2013-04-28 13:06:00,81.3,62.6,-100.00,South,180,2.0,3.0,53,0.00,,,0.08,meteohub,2013-04-28 18:06:00,
2013-04-28 13:08:00,81.5,62.2,-100.00,SW,225,1.0,3.0,52,0.00,,,0.08,meteohub,2013-04-28 18:08:00,
2013-04-28 13:12:00,81.7,61.9,-100.00,ESE,113,3.0,3.0,51,0.00,,,0.08,meteohub,2013-04-28 18:12:00,
2013-04-28 13:14:00,81.7,61.9,-100.00,SE,135,0.0,2.0,51,0.00,,,0.08,meteohub,2013-04-28 18:14:00,
2013-04-28 13:16:00,82.0,62.1,-100.00,SE,135,0.0,3.0,51,0.00,,,0.08,meteohub,2013-04-28 18:16:00,
2013-04-28 13:18:00,82.2,61.7,-100.00,South,180,3.0,3.0,50,0.00,,,0.08,meteohub,2013-04-28 18:18:00,
2013-04-28 13:20:00,82.4,61.3,-100.00,South,180,1.0,3.0,49,0.00,,,0.08,meteohub,2013-04-28 18:20:00,
2013-04-28 13:22:00,82.6,61.5,-100.00,South,180,3.0,3.0,49,0.00,,,0.08,meteohub,2013-04-28 18:22:00,
2013-04-28 13:26:00,82.6,61.0,-100.00,SSW,203,1.0,3.0,48,0.00,,,0.08,meteohub,2013-04-28 18:26:00,
2013-04-28 13:28:00,82.4,60.8,-100.00,SW,225,2.0,3.0,48,0.00,,,0.08,meteohub,2013-04-28 18:28:00,
2013-04-28 13:32:00,82.6,61.0,-100.00,East,90,0.0,3.0,48,0.00,,,0.08,meteohub,2013-04-28 18:32:00,
2013-04-28 13:35:00,82.8,61.0,-100.00,WSW,248,0.0,3.0,48,0.00,,,0.08,meteohub,2013-04-28 18:35:00,
2013-04-28 13:37:00,82.9,60.6,-100.00,SE,135,1.0,4.0,47,0.00,,,0.08,meteohub,2013-04-28 18:37:00,
2013-04-28 13:41:00,82.9,60.1,-100.00,NE,45,1.0,4.0,46,0.00,,,0.08,meteohub,2013-04-28 18:41:00,
2013-04-28 13:43:00,82.9,60.6,-100.00,NNE,23,1.0,4.0,47,0.00,,,0.08,meteohub,2013-04-28 18:43:00,
2013-04-28 13:45:00,82.9,60.1,-100.00,NE,45,4.0,4.0,46,0.00,,,0.08,meteohub,2013-04-28 18:45:00,
2013-04-28 13:47:00,82.9,60.1,-100.00,NE,45,3.0,4.0,46,0.00,,,0.08,meteohub,2013-04-28 18:47:00,
2013-04-28 13:51:00,82.9,60.6,-100.00,NE,45,1.0,4.0,47,0.00,,,0.08,meteohub,2013-04-28 18:51:00,
2013-04-28 13:53:00,82.8,60.4,-100.00,SSE,158,0.0,4.0,47,0.00,,,0.08,meteohub,2013-04-28 18:53:00,
2013-04-28 13:55:00,82.6,60.3,-100.00,SSW,203,0.0,4.0,47,0.00,,,0.08,meteohub,2013-04-28 18:55:00,
2013-04-28 13:57:00,82.6,60.3,-100.00,West,270,8.0,8.0,47,0.00,,,0.08,meteohub,2013-04-28 18:57:00,
2013-04-28 14:02:00,82.9,60.1,-100.00,East,90,1.0,8.0,46,0.00,,,0.08,meteohub,2013-04-28 19:02:00,
2013-04-28 14:03:00,82.9,60.1,-100.00,SE,135,1.0,8.0,46,0.00,,,0.08,meteohub,2013-04-28 19:03:00,
2013-04-28 14:05:00,83.1,60.8,-100.00,SSW,203,4.0,8.0,47,0.00,,,0.08,meteohub,2013-04-28 19:05:00,
2013-04-28 14:07:00,83.3,60.4,-100.00,ESE,113,0.0,8.0,46,0.00,,,0.08,meteohub,2013-04-28 19:07:00,
2013-04-28 14:09:00,83.3,60.4,-100.00,ESE,113,6.0,8.0,46,0.00,,,0.08,meteohub,2013-04-28 19:09:00,
2013-04-28 14:13:00,83.5,59.9,-100.00,ESE,113,3.0,8.0,45,0.00,,,0.08,meteohub,2013-04-28 19:13:00,
2013-04-28 14:15:00,83.5,59.9,-100.00,ESE,113,3.0,8.0,45,0.00,,,0.08,meteohub,2013-04-28 19:15:00,
2013-04-28 14:17:00,83.5,59.9,-100.00,SSE,158,2.0,6.0,45,0.00,,,0.08,meteohub,2013-04-28 19:17:00,
2013-04-28 14:21:00,83.5,59.9,-100.00,ENE,68,2.0,6.0,45,0.00,,,0.08,meteohub,2013-04-28 19:21:00,
2013-04-28 14:27:00,83.8,60.8,-100.00,ESE,113,3.0,6.0,46,0.00,,,0.08,meteohub,2013-04-28 19:27:00,
2013-04-28 14:32:00,84.0,60.4,-100.00,NE,45,5.0,5.0,45,0.00,,,0.08,meteohub,2013-04-28 19:32:00,
2013-04-28 14:35:00,84.2,60.6,-100.00,SSE,158,2.0,3.0,45,0.00,,,0.08,meteohub,2013-04-28 19:35:00,
2013-04-28 14:37:00,84.2,59.9,-100.00,ENE,68,2.0,5.0,44,0.00,,,0.08,meteohub,2013-04-28 19:37:00,
2013-04-28 14:41:00,84.4,60.1,-100.00,SE,135,2.0,5.0,44,0.00,,,0.08,meteohub,2013-04-28 19:41:00,
2013-04-28 14:43:00,84.4,59.4,-100.00,NE,45,2.0,5.0,43,0.00,,,0.08,meteohub,2013-04-28 19:43:00,
2013-04-28 14:45:00,84.4,59.4,-100.00,NE,45,2.0,5.0,43,0.00,,,0.08,meteohub,2013-04-28 19:45:00,
2013-04-28 14:47:00,84.2,59.4,-100.00,ESE,113,6.0,6.0,43,0.00,,,0.08,meteohub,2013-04-28 19:47:00,
2013-04-28 14:49:00,84.0,59.7,-100.00,SSE,158,1.0,5.0,44,0.00,,,0.08,meteohub,2013-04-28 19:49:00,
2013-04-28 14:51:00,84.0,59.7,-100.00,SSE,158,1.0,6.0,44,0.00,,,0.08,meteohub,2013-04-28 19:51:00,
2013-04-28 14:53:00,84.2,59.9,-100.00,SSE,158,0.0,6.0,44,0.00,,,0.08,meteohub,2013-04-28 19:53:00,
2013-04-28 14:57:00,84.7,60.4,-100.00,South,180,3.0,6.0,44,0.00,,,0.08,meteohub,2013-04-28 19:57:00,
2013-04-28 14:59:00,84.9,60.6,-100.00,SE,135,4.0,6.0,44,0.00,,,0.08,meteohub,2013-04-28 19:59:00,
2013-04-28 15:01:00,85.1,60.1,-100.00,South,180,1.0,6.0,43,0.00,,,0.08,meteohub,2013-04-28 20:01:00,
2013-04-28 15:02:00,85.1,60.1,-100.00,South,180,1.0,6.0,43,0.00,,,0.08,meteohub,2013-04-28 20:02:00,
2013-04-28 15:05:00,85.1,60.1,-100.00,NE,45,2.0,4.0,43,0.00,,,0.08,meteohub,2013-04-28 20:05:00,
2013-04-28 15:07:00,85.1,60.1,-100.00,SSW,203,2.0,4.0,43,0.00,,,0.08,meteohub,2013-04-28 20:07:00,
2013-04-28 15:11:00,85.1,59.4,-100.00,SE,135,6.0,6.0,42,0.00,,,0.08,meteohub,2013-04-28 20:11:00,
2013-04-28 15:13:00,85.1,59.4,-100.00,East,90,3.0,4.0,42,0.00,,,0.08,meteohub,2013-04-28 20:13:00,
2013-04-28 15:17:00,84.9,59.2,-100.00,East,90,0.0,6.0,42,0.00,,,0.08,meteohub,2013-04-28 20:17:00,
2013-04-28 15:19:00,84.7,59.2,-100.00,SSW,203,1.0,6.0,42,0.00,,,0.08,meteohub,2013-04-28 20:19:00,
2013-04-28 15:21:00,84.7,59.2,-100.00,SSW,203,0.0,6.0,42,0.00,,,0.08,meteohub,2013-04-28 20:21:00,
2013-04-28 15:25:00,84.7,59.7,-100.00,WNW,293,1.0,6.0,43,0.00,,,0.08,meteohub,2013-04-28 20:25:00,
2013-04-28 15:27:00,84.9,59.9,-100.00,SE,135,3.0,6.0,43,0.00,,,0.08,meteohub,2013-04-28 20:27:00,
2013-04-28 15:29:00,85.1,60.1,-100.00,ENE,68,0.0,6.0,43,0.00,,,0.08,meteohub,2013-04-28 20:29:00,
2013-04-28 15:31:00,85.3,59.5,-100.00,NE,45,1.0,3.0,42,0.00,,,0.08,meteohub,2013-04-28 20:31:00,
2013-04-28 15:32:00,85.3,59.5,-100.00,NE,45,1.0,3.0,42,0.00,,,0.08,meteohub,2013-04-28 20:32:00,
2013-04-28 15:33:00,85.3,59.5,-100.00,WSW,248,1.0,3.0,42,0.00,,,0.08,meteohub,2013-04-28 20:33:00,
2013-04-28 15:35:00,85.6,59.9,-100.00,SE,135,1.0,3.0,42,0.00,,,0.08,meteohub,2013-04-28 20:35:00,
2013-04-28 15:37:00,85.8,60.1,-100.00,SSE,158,1.0,3.0,42,0.00,,,0.08,meteohub,2013-04-28 20:37:00,
2013-04-28 15:43:00,85.8,59.4,-100.00,SSW,203,5.0,5.0,41,0.00,,,0.08,meteohub,2013-04-28 20:43:00,
2013-04-28 15:47:00,85.8,59.4,-100.00,East,90,1.0,5.0,41,0.00,,,0.08,meteohub,2013-04-28 20:47:00,
2013-04-28 15:49:00,86.0,58.8,-100.00,ENE,68,1.0,5.0,40,0.00,,,0.08,meteohub,2013-04-28 20:49:00,
2013-04-28 15:53:00,86.2,59.0,-100.00,NE,45,2.0,5.0,40,0.00,,,0.08,meteohub,2013-04-28 20:53:00,
2013-04-28 15:57:00,86.2,58.3,-100.00,SW,225,1.0,5.0,39,0.00,,,0.08,meteohub,2013-04-28 20:57:00,
2013-04-28 15:59:00,85.8,58.6,-100.00,West,270,0.0,5.0,40,0.00,,,0.08,meteohub,2013-04-28 20:59:00,
2013-04-28 16:01:00,85.6,59.2,-100.00,West,270,0.0,2.0,41,0.00,,,0.08,meteohub,2013-04-28 21:01:00,
2013-04-28 16:03:00,85.6,59.2,-100.00,SSW,203,1.0,2.0,41,0.00,,,0.08,meteohub,2013-04-28 21:03:00,
2013-04-28 16:10:00,85.6,59.2,-100.00,SSE,158,0.0,2.0,41,0.00,,,0.08,meteohub,2013-04-28 21:10:00,
2013-04-28 16:12:00,85.8,57.9,-100.00,ENE,68,3.0,5.0,39,0.00,,,0.08,meteohub,2013-04-28 21:12:00,
2013-04-28 16:14:00,85.8,57.9,-100.00,ESE,113,3.0,5.0,39,0.00,,,0.08,meteohub,2013-04-28 21:14:00,
2013-04-28 16:17:00,85.6,57.9,-100.00,SSW,203,4.0,5.0,39,0.00,,,0.08,meteohub,2013-04-28 21:17:00,
2013-04-28 16:18:00,85.6,57.9,-100.00,SSE,158,2.0,5.0,39,0.00,,,0.08,meteohub,2013-04-28 21:18:00,
2013-04-28 16:20:00,85.6,57.9,-100.00,North,0,1.0,5.0,39,0.00,,,0.08,meteohub,2013-04-28 21:20:00,
2013-04-28 16:24:00,85.8,58.6,-100.00,SSE,158,0.0,5.0,40,0.00,,,0.08,meteohub,2013-04-28 21:24:00,
2013-04-28 16:28:00,85.8,59.4,-100.00,ENE,68,4.0,4.0,41,0.00,,,0.08,meteohub,2013-04-28 21:28:00,
2013-04-28 16:30:00,85.8,57.9,-100.00,ENE,68,0.0,4.0,39,0.00,,,0.08,meteohub,2013-04-28 21:30:00,
2013-04-28 16:32:00,85.8,57.9,-100.00,ENE,68,0.0,4.0,39,0.00,,,0.08,meteohub,2013-04-28 21:32:00,
2013-04-28 16:38:00,85.6,58.5,-100.00,South,180,2.0,4.0,40,0.00,,,0.08,meteohub,2013-04-28 21:38:00,
2013-04-28 16:40:00,85.6,57.9,-100.00,South,180,1.0,4.0,39,0.00,,,0.08,meteohub,2013-04-28 21:40:00,
2013-04-28 16:44:00,85.6,57.9,-100.00,SE,135,1.0,4.0,39,0.00,,,0.08,meteohub,2013-04-28 21:44:00,
2013-04-28 16:46:00,85.6,57.9,-100.00,SE,135,4.0,4.0,39,0.00,,,0.08,meteohub,2013-04-28 21:46:00,
2013-04-28 16:47:00,85.6,57.9,-100.00,SE,135,4.0,4.0,39,0.00,,,0.08,meteohub,2013-04-28 21:47:00,
2013-04-28 16:50:00,85.5,57.7,-100.00,WSW,248,2.0,4.0,39,0.00,,,0.08,meteohub,2013-04-28 21:50:00,
2013-04-28 16:52:00,85.6,57.9,-100.00,SSW,203,5.0,5.0,39,0.00,,,0.08,meteohub,2013-04-28 21:52:00,
2013-04-28 16:54:00,85.6,57.9,-100.00,SE,135,1.0,4.0,39,0.00,,,0.08,meteohub,2013-04-28 21:54:00,
2013-04-28 16:56:00,85.6,57.9,-100.00,SSE,158,1.0,5.0,39,0.00,,,0.08,meteohub,2013-04-28 21:56:00,
2013-04-28 16:58:00,85.6,57.2,-100.00,ENE,68,3.0,5.0,38,0.00,,,0.08,meteohub,2013-04-28 21:58:00,
2013-04-28 17:00:00,85.6,57.2,-100.00,SW,225,6.0,6.0,38,0.00,,,0.08,meteohub,2013-04-28 22:00:00,
2013-04-28 17:04:00,85.3,56.8,-100.00,ENE,68,0.0,5.0,38,0.00,,,0.08,meteohub,2013-04-28 22:04:00,
2013-04-28 17:08:00,85.3,57.6,-100.00,SSE,158,2.0,6.0,39,0.00,,,0.08,meteohub,2013-04-28 22:08:00,
2013-04-28 17:10:00,85.1,56.7,-100.00,ENE,68,3.0,6.0,38,0.00,,,0.08,meteohub,2013-04-28 22:10:00,
2013-04-28 17:14:00,84.9,57.2,-100.00,ENE,68,1.0,6.0,39,0.00,,,0.08,meteohub,2013-04-28 22:14:00,
2013-04-28 17:16:00,84.7,57.0,-100.00,ENE,68,4.0,6.0,39,0.00,,,0.08,meteohub,2013-04-28 22:16:00,
2013-04-28 17:18:00,84.6,57.6,-100.00,South,180,7.0,7.0,40,0.00,,,0.08,meteohub,2013-04-28 22:18:00,
2013-04-28 17:20:00,84.4,57.4,-100.00,ESE,113,0.0,7.0,40,0.00,,,0.08,meteohub,2013-04-28 22:20:00,
2013-04-28 17:24:00,84.0,57.0,-100.00,SSE,158,2.0,7.0,40,0.00,,,0.08,meteohub,2013-04-28 22:24:00,
2013-04-28 17:26:00,84.0,57.0,-100.00,ESE,113,2.0,7.0,40,0.00,,,0.08,meteohub,2013-04-28 22:26:00,
2013-04-28 17:30:00,84.0,56.5,-100.00,SE,135,4.0,7.0,39,0.00,,,0.08,meteohub,2013-04-28 22:30:00,
2013-04-28 17:32:00,84.0,56.5,-100.00,SE,135,4.0,7.0,39,0.00,,,0.08,meteohub,2013-04-28 22:32:00,
2013-04-28 17:36:00,83.8,56.3,-100.00,SSE,158,2.0,4.0,39,0.00,,,0.08,meteohub,2013-04-28 22:36:00,
2013-04-28 17:40:00,83.8,56.3,-100.00,ESE,113,4.0,4.0,39,0.00,,,0.08,meteohub,2013-04-28 22:40:00,
2013-04-28 17:42:00,83.7,56.1,-100.00,South,180,1.0,4.0,39,0.00,,,0.08,meteohub,2013-04-28 22:42:00,
2013-04-28 17:46:00,83.5,55.9,-100.00,SE,135,1.0,4.0,39,0.00,,,0.08,meteohub,2013-04-28 22:46:00,
2013-04-28 17:50:00,83.3,55.8,-100.00,SSE,158,2.0,4.0,39,0.00,,,0.08,meteohub,2013-04-28 22:50:00,
2013-04-28 17:52:00,83.1,55.6,-100.00,ESE,113,1.0,4.0,39,0.00,,,0.08,meteohub,2013-04-28 22:52:00,
2013-04-28 17:56:00,83.1,56.3,-100.00,SSE,158,0.0,4.0,40,0.00,,,0.08,meteohub,2013-04-28 22:56:00,
2013-04-28 17:58:00,82.9,56.1,-100.00,SSE,158,0.0,4.0,40,0.00,,,0.08,meteohub,2013-04-28 22:58:00,
2013-04-28 18:00:00,82.9,56.1,-100.00,SSE,158,2.0,3.0,40,0.00,,,0.08,meteohub,2013-04-28 23:00:00,
2013-04-28 18:02:00,82.9,56.1,-100.00,SSE,158,2.0,3.0,40,0.00,,,0.08,meteohub,2013-04-28 23:02:00,
2013-04-28 18:06:00,82.6,55.0,-100.00,NE,45,3.0,6.0,39,0.00,,,0.08,meteohub,2013-04-28 23:06:00,
2013-04-28 18:08:00,82.6,55.0,-100.00,NE,45,3.0,6.0,39,0.00,,,0.08,meteohub,2013-04-28 23:08:00,
2013-04-28 18:10:00,82.8,55.2,-100.00,NNE,23,2.0,6.0,39,0.00,,,0.08,meteohub,2013-04-28 23:10:00,
2013-04-28 18:12:00,82.6,55.0,-100.00,NE,45,0.0,6.0,39,0.00,,,0.08,meteohub,2013-04-28 23:12:00,
2013-04-28 18:16:00,82.6,55.8,-100.00,NE,45,3.0,6.0,40,0.00,,,0.08,meteohub,2013-04-28 23:16:00,
2013-04-28 18:18:00,82.4,55.6,-100.00,NE,45,2.0,6.0,40,0.00,,,0.08,meteohub,2013-04-28 23:18:00,
2013-04-28 18:22:00,82.2,56.1,-100.00,ENE,68,0.0,3.0,41,0.00,,,0.08,meteohub,2013-04-28 23:22:00,
2013-04-28 18:24:00,82.0,55.9,-100.00,ESE,113,0.0,3.0,41,0.00,,,0.08,meteohub,2013-04-28 23:24:00,
2013-04-28 18:26:00,82.2,56.1,-100.00,NE,45,1.0,3.0,41,0.00,,,0.08,meteohub,2013-04-28 23:26:00,
2013-04-28 18:30:00,82.0,56.7,-100.00,ENE,68,0.0,7.0,42,0.00,,,0.08,meteohub,2013-04-28 23:30:00,
2013-04-28 18:32:00,82.0,56.7,-100.00,ENE,68,0.0,7.0,42,0.00,,,0.08,meteohub,2013-04-28 23:32:00,
2013-04-28 18:34:00,81.7,56.3,-100.00,ESE,113,1.0,7.0,42,0.00,,,0.08,meteohub,2013-04-28 23:34:00,
2013-04-28 18:40:00,81.5,57.6,-100.00,East,90,2.0,7.0,44,0.00,,,0.08,meteohub,2013-04-28 23:40:00,
2013-04-28 18:42:00,81.5,57.6,-100.00,East,90,2.0,7.0,44,0.00,,,0.08,meteohub,2013-04-28 23:42:00,
2013-04-28 18:44:00,81.3,57.4,-100.00,SE,135,1.0,7.0,44,0.00,,,0.08,meteohub,2013-04-28 23:44:00,
2013-04-28 18:46:00,81.1,56.5,-100.00,SE,135,2.0,2.0,43,0.00,,,0.08,meteohub,2013-04-28 23:46:00,
2013-04-28 18:47:00,81.1,56.5,-100.00,SE,135,2.0,2.0,43,0.00,,,0.08,meteohub,2013-04-28 23:47:00,
2013-04-28 18:52:00,81.0,56.3,-100.00,South,180,0.0,2.0,43,0.00,,,0.08,meteohub,2013-04-28 23:52:00,
2013-04-28 18:54:00,80.8,56.1,-100.00,ENE,68,2.0,2.0,43,0.00,,,0.08,meteohub,2013-04-28 23:54:00,
2013-04-28 19:00:00,80.6,57.4,-100.00,SE,135,3.0,3.0,45,0.00,,,0.08,meteohub,2013-04-29 00:00:00,
2013-04-28 19:02:00,80.6,57.4,-100.00,SE,135,3.0,3.0,45,0.00,,,0.08,meteohub,2013-04-29 00:02:00,
2013-04-28 19:05:00,80.4,57.2,-100.00,East,90,4.0,4.0,45,0.00,,,0.08,meteohub,2013-04-29 00:05:00,
2013-04-28 19:09:00,80.2,57.0,-100.00,SE,135,1.0,3.0,45,0.00,,,0.00,meteohub,2013-04-29 00:09:00,
2013-04-28 19:13:00,80.1,56.8,-100.00,ESE,113,6.0,6.0,45,0.00,,,0.00,meteohub,2013-04-29 00:13:00,
2013-04-28 19:15:00,80.1,57.4,-100.00,ESE,113,4.0,4.0,46,0.00,,,0.00,meteohub,2013-04-29 00:15:00,
2013-04-28 19:19:00,79.9,57.2,-100.00,East,90,4.0,6.0,46,0.00,,,0.00,meteohub,2013-04-29 00:19:00,
2013-04-28 19:21:00,79.9,57.2,-100.00,ENE,68,1.0,6.0,46,0.00,,,0.00,meteohub,2013-04-29 00:21:00,
2013-04-28 19:23:00,79.7,57.0,-100.00,East,90,9.0,9.0,46,0.00,,,0.00,meteohub,2013-04-29 00:23:00,
2013-04-28 19:25:00,79.5,56.8,-100.00,ENE,68,2.0,6.0,46,0.00,,,0.00,meteohub,2013-04-29 00:25:00,
2013-04-28 19:29:00,79.3,57.4,-100.00,ESE,113,9.0,9.0,47,0.00,,,0.00,meteohub,2013-04-29 00:29:00,
2013-04-28 19:33:00,79.2,57.2,-100.00,ESE,113,3.0,9.0,47,0.00,,,0.00,meteohub,2013-04-29 00:33:00,
2013-04-28 19:35:00,79.0,57.0,-100.00,ENE,68,6.0,9.0,47,0.00,,,0.00,meteohub,2013-04-29 00:35:00,
2013-04-28 19:39:00,78.6,56.7,-100.00,East,90,3.0,9.0,47,0.00,,,0.00,meteohub,2013-04-29 00:39:00,
2013-04-28 19:41:00,78.6,57.2,-100.00,East,90,3.0,9.0,48,0.00,,,0.00,meteohub,2013-04-29 00:41:00,
2013-04-28 19:43:00,78.4,57.2,-100.00,East,90,0.0,9.0,48,0.00,,,0.00,meteohub,2013-04-29 00:43:00,
2013-04-28 19:47:00,78.4,57.2,-100.00,SSE,158,1.0,6.0,48,0.00,,,0.00,meteohub,2013-04-29 00:47:00,
2013-04-28 19:51:00,78.1,56.8,-100.00,ESE,113,2.0,6.0,48,0.00,,,0.00,meteohub,2013-04-29 00:51:00,
2013-04-28 19:53:00,78.1,56.8,-100.00,SE,135,0.0,6.0,48,0.00,,,0.00,meteohub,2013-04-29 00:53:00,
2013-04-28 19:55:00,77.7,56.5,-100.00,East,90,5.0,6.0,48,0.00,,,0.00,meteohub,2013-04-29 00:55:00,
2013-04-28 19:57:00,77.7,56.5,-100.00,East,90,0.0,4.0,48,0.00,,,0.00,meteohub,2013-04-29 00:57:00,
2013-04-28 20:01:00,77.5,56.3,-100.00,ESE,113,2.0,5.0,48,0.00,,,0.00,meteohub,2013-04-29 01:01:00,
2013-04-28 20:03:00,77.4,56.1,-100.00,SE,135,0.0,5.0,48,0.00,,,0.00,meteohub,2013-04-29 01:03:00,
2013-04-28 20:07:00,77.2,56.5,-100.00,SE,135,2.0,5.0,49,0.00,,,0.00,meteohub,2013-04-29 01:07:00,
2013-04-28 20:09:00,77.2,56.5,-100.00,SE,135,0.0,5.0,49,0.00,,,0.00,meteohub,2013-04-29 01:09:00,
2013-04-28 20:11:00,77.0,55.8,-100.00,NE,45,1.0,5.0,48,0.00,,,0.00,meteohub,2013-04-29 01:11:00,
2013-04-28 20:15:00,76.8,56.3,-100.00,SE,135,2.0,3.0,49,0.00,,,0.00,meteohub,2013-04-29 01:15:00,
2013-04-28 20:17:00,76.6,56.1,-100.00,ESE,113,0.0,3.0,49,0.00,,,0.00,meteohub,2013-04-29 01:17:00,
2013-04-28 20:19:00,76.6,56.1,-100.00,ESE,113,2.0,3.0,49,0.00,,,0.00,meteohub,2013-04-29 01:19:00,
2013-04-28 20:23:00,76.5,56.5,-100.00,ESE,113,2.0,3.0,50,0.00,,,0.00,meteohub,2013-04-29 01:23:00,
2013-04-28 20:25:00,76.5,57.0,-100.00,ESE,113,2.0,3.0,51,0.00,,,0.00,meteohub,2013-04-29 01:25:00,
2013-04-28 20:27:00,76.3,56.3,-100.00,SE,135,0.0,3.0,50,0.00,,,0.00,meteohub,2013-04-29 01:27:00,
2013-04-28 20:31:00,76.1,56.7,-100.00,WSW,248,2.0,3.0,51,0.00,,,0.00,meteohub,2013-04-29 01:31:00,
2013-04-28 20:32:00,75.9,57.0,-100.00,ESE,113,2.0,3.0,52,0.00,,,0.00,meteohub,2013-04-29 01:32:00,
2013-04-28 20:33:00,75.9,57.0,-100.00,ESE,113,2.0,3.0,52,0.00,,,0.00,meteohub,2013-04-29 01:33:00,
2013-04-28 20:35:00,75.9,56.5,-100.00,SW,225,0.0,3.0,51,0.00,,,0.00,meteohub,2013-04-29 01:35:00,
2013-04-28 20:37:00,75.7,56.8,-100.00,SSW,203,4.0,4.0,52,0.00,,,0.00,meteohub,2013-04-29 01:37:00,
2013-04-28 20:43:00,75.6,57.2,-100.00,North,0,2.0,4.0,53,0.00,,,0.00,meteohub,2013-04-29 01:43:00,
2013-04-28 20:45:00,75.6,57.2,-100.00,South,180,3.0,4.0,53,0.00,,,0.00,meteohub,2013-04-29 01:45:00,
2013-04-28 20:47:00,75.4,57.0,-100.00,SW,225,0.0,4.0,53,0.00,,,0.00,meteohub,2013-04-29 01:47:00,
2013-04-28 20:49:00,75.4,57.0,-100.00,East,90,0.0,4.0,53,0.00,,,0.00,meteohub,2013-04-29 01:49:00,
2013-04-28 20:51:00,75.0,57.2,-100.00,East,90,0.0,4.0,54,0.00,,,0.00,meteohub,2013-04-29 01:51:00,
2013-04-28 20:53:00,75.0,57.2,-100.00,SE,135,4.0,4.0,54,0.00,,,0.00,meteohub,2013-04-29 01:53:00,
2013-04-28 20:55:00,75.0,57.2,-100.00,SSE,158,0.0,3.0,54,0.00,,,0.00,meteohub,2013-04-29 01:55:00,
2013-04-28 20:59:00,74.8,57.6,-100.00,SE,135,1.0,3.0,55,0.00,,,0.00,meteohub,2013-04-29 01:59:00,
2013-04-28 21:01:00,74.8,57.6,-100.00,SW,225,4.0,4.0,55,0.00,,,0.00,meteohub,2013-04-29 02:01:00,
2013-04-28 21:02:00,74.8,57.6,-100.00,East,90,1.0,4.0,55,0.00,,,0.00,meteohub,2013-04-29 02:02:00,
2013-04-28 21:07:00,74.5,57.7,-100.00,SSE,158,0.0,4.0,56,0.00,,,0.00,meteohub,2013-04-29 02:07:00,
2013-04-28 21:09:00,74.5,57.7,-100.00,East,90,0.0,4.0,56,0.00,,,0.00,meteohub,2013-04-29 02:09:00,
2013-04-28 21:11:00,74.3,57.6,-100.00,South,180,1.0,4.0,56,0.00,,,0.00,meteohub,2013-04-29 02:11:00,
2013-04-28 21:13:00,74.3,57.6,-100.00,South,180,1.0,4.0,56,0.00,,,0.00,meteohub,2013-04-29 02:13:00,
2013-04-28 21:17:00,74.1,57.4,-100.00,SSW,203,2.0,4.0,56,0.00,,,0.00,meteohub,2013-04-29 02:17:00,
2013-04-28 21:23:00,73.9,57.7,-100.00,SSW,203,1.0,3.0,57,0.00,,,0.00,meteohub,2013-04-29 02:23:00,
2013-04-28 21:25:00,73.9,57.7,-100.00,SSW,203,0.0,3.0,57,0.00,,,0.00,meteohub,2013-04-29 02:25:00,
2013-04-28 21:27:00,73.8,57.6,-100.00,South,180,0.0,3.0,57,0.00,,,0.00,meteohub,2013-04-29 02:27:00,
2013-04-28 21:29:00,73.8,57.6,-100.00,South,180,0.0,3.0,57,0.00,,,0.00,meteohub,2013-04-29 02:29:00,
2013-04-28 21:31:00,73.8,58.1,-100.00,South,180,0.0,3.0,58,0.00,,,0.00,meteohub,2013-04-29 02:31:00,
2013-04-28 21:32:00,73.8,58.1,-100.00,South,180,0.0,3.0,58,0.00,,,0.00,meteohub,2013-04-29 02:32:00,
2013-04-28 21:35:00,73.6,57.9,-100.00,South,180,1.0,2.0,58,0.00,,,0.00,meteohub,2013-04-29 02:35:00,
2013-04-28 21:37:00,73.4,57.7,-100.00,East,90,1.0,2.0,58,0.00,,,0.00,meteohub,2013-04-29 02:37:00,
2013-04-28 21:43:00,73.2,58.1,-100.00,SSW,203,0.0,1.0,59,0.00,,,0.00,meteohub,2013-04-29 02:43:00,
2013-04-28 21:47:00,73.2,58.5,-100.00,South,180,0.0,1.0,60,0.00,,,0.00,meteohub,2013-04-29 02:47:00,
2013-04-28 21:49:00,73.2,58.5,-100.00,South,180,0.0,1.0,60,0.00,,,0.00,meteohub,2013-04-29 02:49:00,
2013-04-28 21:55:00,73.0,58.8,-100.00,SSW,203,2.0,2.0,61,0.00,,,0.00,meteohub,2013-04-29 02:55:00,
2013-04-28 21:57:00,72.9,58.6,-100.00,SE,135,0.0,2.0,61,0.00,,,0.00,meteohub,2013-04-29 02:57:00,
2013-04-28 21:59:00,72.7,58.5,-100.00,SE,135,0.0,2.0,61,0.00,,,0.00,meteohub,2013-04-29 02:59:00,
2013-04-28 22:01:00,72.7,58.5,-100.00,ESE,113,2.0,2.0,61,0.00,,,0.00,meteohub,2013-04-29 03:01:00,
2013-04-28 22:06:00,72.7,58.8,-100.00,SE,135,0.0,2.0,62,0.00,,,0.00,meteohub,2013-04-29 03:06:00,
2013-04-28 22:08:00,72.5,58.8,-100.00,SSW,203,1.0,2.0,62,0.00,,,0.00,meteohub,2013-04-29 03:08:00,
2013-04-28 22:12:00,72.5,58.8,-100.00,South,180,0.0,2.0,62,0.00,,,0.00,meteohub,2013-04-29 03:12:00,
2013-04-28 22:16:00,72.3,58.6,-100.00,SE,135,0.0,2.0,62,0.00,,,0.00,meteohub,2013-04-29 03:16:00,
2013-04-28 22:17:00,72.3,58.6,-100.00,SW,225,2.0,2.0,62,0.00,,,0.00,meteohub,2013-04-29 03:17:00,
2013-04-28 22:22:00,72.3,58.6,-100.00,SSW,203,3.0,3.0,62,0.00,,,0.00,meteohub,2013-04-29 03:22:00,
2013-04-28 22:24:00,72.3,58.6,-100.00,SSW,203,0.0,2.0,62,0.00,,,0.00,meteohub,2013-04-29 03:24:00,
2013-04-28 22:26:00,72.3,58.6,-100.00,SE,135,0.0,3.0,62,0.00,,,0.00,meteohub,2013-04-29 03:26:00,
2013-04-28 22:28:00,72.1,58.5,-100.00,SSE,158,0.0,3.0,62,0.00,,,0.00,meteohub,2013-04-29 03:28:00,
2013-04-28 22:30:00,72.1,58.8,-100.00,SSW,203,0.0,3.0,63,0.00,,,0.00,meteohub,2013-04-29 03:30:00,
2013-04-28 22:32:00,72.0,58.6,-100.00,SSW,203,0.0,3.0,63,0.00,,,0.00,meteohub,2013-04-29 03:32:00,
2013-04-28 22:36:00,72.0,58.6,-100.00,SSW,203,0.0,3.0,63,0.00,,,0.00,meteohub,2013-04-29 03:36:00,
2013-04-28 22:38:00,71.8,58.5,-100.00,SSW,203,0.0,3.0,63,0.00,,,0.00,meteohub,2013-04-29 03:38:00,
2013-04-28 22:40:00,71.8,58.5,-100.00,SE,135,0.0,3.0,63,0.00,,,0.00,meteohub,2013-04-29 03:40:00,
2013-04-28 22:42:00,71.8,58.5,-100.00,SSW,203,0.0,0.0,63,0.00,,,0.00,meteohub,2013-04-29 03:42:00,
2013-04-28 22:44:00,71.8,58.5,-100.00,SSW,203,0.0,0.0,63,0.00,,,0.00,meteohub,2013-04-29 03:44:00,
2013-04-28 22:46:00,71.8,58.5,-100.00,South,180,0.0,0.0,63,0.00,,,0.00,meteohub,2013-04-29 03:46:00,
2013-04-28 22:47:00,71.8,58.5,-100.00,South,180,0.0,0.0,63,0.00,,,0.00,meteohub,2013-04-29 03:47:00,
2013-04-28 22:48:00,71.8,58.5,-100.00,South,180,0.0,0.0,63,0.00,,,0.00,meteohub,2013-04-29 03:48:00,
2013-04-28 22:52:00,71.6,58.8,-100.00,SSW,203,0.0,0.0,64,0.00,,,0.00,meteohub,2013-04-29 03:52:00,
2013-04-28 22:54:00,71.4,58.6,-100.00,SSW,203,0.0,0.0,64,0.00,,,0.00,meteohub,2013-04-29 03:54:00,
2013-04-28 22:56:00,71.4,58.6,-100.00,SE,135,0.0,0.0,64,0.00,,,0.00,meteohub,2013-04-29 03:56:00,
2013-04-28 23:00:00,71.4,58.6,-100.00,SE,135,0.0,0.0,64,0.00,,,0.00,meteohub,2013-04-29 04:00:00,
2013-04-28 23:02:00,71.2,58.8,-100.00,SE,135,0.0,0.0,65,0.00,,,0.00,meteohub,2013-04-29 04:02:00,
2013-04-28 23:04:00,71.2,58.8,-100.00,SSE,158,0.0,0.0,65,0.00,,,0.00,meteohub,2013-04-29 04:04:00,
2013-04-28 23:06:00,71.2,58.8,-100.00,SSE,158,0.0,0.0,65,0.00,,,0.00,meteohub,2013-04-29 04:06:00,
2013-04-28 23:08:00,71.2,58.8,-100.00,ESE,113,0.0,0.0,65,0.00,,,0.00,meteohub,2013-04-29 04:08:00,
2013-04-28 23:10:00,71.2,58.8,-100.00,ESE,113,0.0,0.0,65,0.00,,,0.00,meteohub,2013-04-29 04:10:00,
2013-04-28 23:12:00,70.9,58.5,-100.00,South,180,0.0,0.0,65,0.00,,,0.00,meteohub,2013-04-29 04:12:00,
2013-04-28 23:16:00,70.9,59.0,-100.00,SSW,203,0.0,0.0,66,0.00,,,0.00,meteohub,2013-04-29 04:16:00,
2013-04-28 23:18:00,70.9,59.0,-100.00,South,180,0.0,0.0,66,0.00,,,0.00,meteohub,2013-04-29 04:18:00,
2013-04-28 23:20:00,70.7,58.8,-100.00,South,180,0.0,0.0,66,0.00,,,0.00,meteohub,2013-04-29 04:20:00,
2013-04-28 23:22:00,70.7,58.8,-100.00,South,180,0.0,0.0,66,0.00,,,0.00,meteohub,2013-04-29 04:22:00,
2013-04-28 23:26:00,70.5,58.6,-100.00,SSE,158,0.0,0.0,66,0.00,,,0.00,meteohub,2013-04-29 04:26:00,
2013-04-28 23:28:00,70.5,58.6,-100.00,SE,135,0.0,0.0,66,0.00,,,0.00,meteohub,2013-04-29 04:28:00,
2013-04-28 23:30:00,70.3,58.8,-100.00,SE,135,0.0,0.0,67,0.00,,,0.00,meteohub,2013-04-29 04:30:00,
2013-04-28 23:32:00,70.3,58.8,-100.00,SE,135,0.0,0.0,67,0.00,,,0.00,meteohub,2013-04-29 04:32:00,
2013-04-28 23:36:00,70.3,58.8,-100.00,South,180,0.0,0.0,67,0.00,,,0.00,meteohub,2013-04-29 04:36:00,
2013-04-28 23:38:00,70.2,58.3,-100.00,South,180,0.0,0.0,66,0.00,,,0.00,meteohub,2013-04-29 04:38:00,
2013-04-28 23:40:00,70.0,58.5,-100.00,South,180,0.0,0.0,67,0.00,,,0.00,meteohub,2013-04-29 04:40:00,
2013-04-28 23:42:00,70.0,58.5,-100.00,South,180,0.0,0.0,67,0.00,,,0.00,meteohub,2013-04-29 04:42:00,
2013-04-28 23:44:00,70.0,58.5,-100.00,South,180,0.0,0.0,67,0.00,,,0.00,meteohub,2013-04-29 04:44:00,
2013-04-28 23:46:00,70.0,58.5,-100.00,SE,135,0.0,0.0,67,0.00,,,0.00,meteohub,2013-04-29 04:46:00,
2013-04-28 23:50:00,69.6,58.6,-100.00,ENE,68,0.0,0.0,68,0.00,,,0.00,meteohub,2013-04-29 04:50:00,
2013-04-28 23:52:00,69.6,58.6,-100.00,East,90,0.0,0.0,68,0.00,,,0.00,meteohub,2013-04-29 04:52:00,
2013-04-28 23:56:00,69.6,58.6,-100.00,ESE,113,0.0,0.0,68,0.00,,,0.00,meteohub,2013-04-29 04:56:00,
2013-04-28 23:58:00,69.4,58.5,-100.00,SSW,203,0.0,0.0,68,0.00,,,0.00,meteohub,2013-04-29 04:58:00,